Regional Weather Roundup
Issued by NWS Goodland, KS

Home | Current Version | Previous Version | Text Only | Print | Product List | Glossary Off
Versions: 1 2 3 4 5 6 7 8 9 10 11 12 13 14 15 16 17 18 19 20 21 22 23 24 25 26 27 28 29 30 31 32 33 34 35 36 37 38 39 40 41 42 43 44 45 46 47 48 49 50

000
ASUS43 KGLD 220759
RWRGLD

GOODLAND FORECAST AREA HOURLY WEATHER ROUNDUP
NATIONAL WEATHER SERVICE GOODLAND KS
100 AM MST MON DEC 22 2014

...OFFICIAL OBSERVATIONS...

CITY           SKY/WX    TMP DP  RH WIND       PRES   REMARKS
GOODLAND KS    MOCLDY    38  32  79 NW20G28   29.59R
HILL CITY KS   MOCLDY    38  34  85 SW5       29.52S
IMPERIAL NEB   CLOUDY    40  29  64 NW17      29.55S
MCCOOK NEB     PTCLDY    34  30  85 W14       29.52F
AKRON CO       MOCLDY    34  29  82 NW15      29.63S
BURLINGTON CO  MIX PCPN  36  33  89 NW20G29   29.62S
LIMON CO       CLOUDY    31  29  92 W10       29.69R
$$

...UNOFFICIAL OBSERVATIONS...

CITY           SKY/WX    TMP DP  RH WIND       PRES   REMARKS
COLBY KS       MOCLDY    39  37  93 NW13      29.56S
GOVE KS          N/A     33  32  96 MISG        N/A
NORTON KS      PTCLDY    36  30  80 W8        29.51R
TRIBUNE KS     MOCLDY    41  39  93 W16G23    29.61R
KIT CARSON CO    N/A     35  32  88 MISG        N/A
YUMA CO          N/A     38  29  70 NW16        N/A
$$


USA.gov is the U.S. government's official web portal to all federal, state and local government web resources and services.